Weather History for Greybull, WY

Change the Weather History Date:

Monday, January 28, 2013

  Actual Average Record
Temperature  
Mean Temperature 21 °F -  
Max Temperature 32 °F 30 °F 49 °F (2005)
Min Temperature 9 °F 6 °F -10 °F (2001)
Degree Days  
Heating Degree Days 44 47  
Month to date heating degree days 1459 1352  
Since 1 July heating degree days 4438 4675  
Cooling Degree Days 0 0  
Month to date cooling degree days 0 0  
Year to date cooling degree days 0 0  
Moisture  
Dew Point 22 °F    
Average Humidity 86    
Maximum Humidity 96    
Minimum Humidity 75    
Precipitation  
Precipitation T in 0.01 in 0.05 in (2009)
Month to date precipitation 0.12 0.21  
Year to date precipitation 0.12 0.21  
Sea Level Pressure  
Sea Level Pressure 29.82 in    
Wind  
Wind Speed 7 mph (North)    
Max Wind Speed 18 mph    
Max Gust Speed 26 mph    
Visibility 6 miles    
Events Snow    
T = Trace of Precipitation, MM = Missing Value Source: NWS Daily Summary

Daily Weather History Graph

Daily Weather History Graph

Search for Another Location

Airport:

Trip Planner

Search our weather history database for the weather conditions in past years. The results will help you decide how hot, cold, wet, or windy it might be!

Date:

Astronomy

Jan. 28, 2013 Rise Set
Actual Time 7:34 AM MST 5:16 PM MST
Civil Twilight 7:03 AM MST 5:47 PM MST
Nautical Twilight 6:28 AM MST 6:22 PM MST
Astronomical Twilight 5:54 AM MST 6:57 PM MST
Moon 7:21 PM MST (1/28) 7:56 AM MST (1/28)
Length of Visible Light 10h 44m
Length of Day
9h 41m
Full, 97% of the Moon is Illuminated
Jan 28
Full
Feb 3
Last Quarter
Feb 10
New
Feb 17
First Quarter
Feb 25
Full

Hourly Weather History & Observations

Time (MST) Temp. Windchill Dew Point Humidity Pressure Visibility Wind Dir Wind Speed Gust Speed Precip Events Conditions
12:16 AM 28.4 °F 18.0 °F 26.6 °F 93% 29.74 in 1.0 mi NW 12.7 mph - 0.00 in Snow Light Snow
12:28 AM 28.4 °F 18.0 °F 26.6 °F 93% 29.73 in 1.2 mi NW 12.7 mph - 0.00 in Snow Light Snow
12:53 AM 28.0 °F 17.5 °F 26.1 °F 92% 29.80 in 2.0 mi NNW 12.7 mph - 0.00 in Snow Light Snow
1:27 AM 28.4 °F 17.0 °F 26.6 °F 93% 29.73 in 4.0 mi NW 15.0 mph - 0.00 in Snow Light Snow
1:53 AM 28.0 °F 16.5 °F 26.1 °F 92% 29.81 in 6.0 mi NNW 15.0 mph - 0.00 in   Overcast
2:53 AM 28.0 °F 16.1 °F 25.0 °F 88% 29.82 in 2.5 mi NNW 16.1 mph - 0.00 in Snow Light Snow
3:04 AM 28.4 °F 17.0 °F 24.8 °F 86% 29.75 in 4.0 mi NNW 15.0 mph - 0.00 in Snow Light Snow
3:35 AM 28.4 °F 17.5 °F 24.8 °F 86% 29.75 in 3.0 mi NNW 13.8 mph - 0.00 in Snow Light Snow
3:53 AM 27.0 °F 14.7 °F 25.0 °F 92% 29.84 in 3.0 mi NNW 16.1 mph - 0.00 in Snow Light Snow
4:08 AM 26.6 °F 14.3 °F 24.8 °F 93% 29.75 in 2.0 mi NNW 16.1 mph - 0.00 in Snow Light Snow
4:26 AM 26.6 °F 13.4 °F 24.8 °F 93% 29.75 in 2.0 mi NNW 18.4 mph - 0.00 in Snow Light Snow
4:36 AM 26.6 °F 13.4 °F 24.8 °F 93% 29.75 in 1.5 mi NNW 18.4 mph - 0.00 in Snow Light Snow
4:53 AM 27.0 °F 14.7 °F 24.1 °F 89% 29.84 in 3.0 mi NNW 16.1 mph - 0.00 in Snow Light Snow
5:16 AM 26.6 °F 14.3 °F 24.8 °F 93% 29.75 in 9.0 mi NNW 16.1 mph - 0.00 in   Overcast
5:53 AM 27.0 °F 15.6 °F 24.1 °F 89% 29.85 in 10.0 mi NNW 13.8 mph - 0.00 in   Overcast
6:06 AM 26.6 °F 14.3 °F 24.8 °F 93% 29.76 in 8.0 mi NNW 16.1 mph - N/A   Overcast
6:37 AM 26.6 °F 16.2 °F 24.8 °F 93% 29.77 in 10.0 mi NNW 11.5 mph - 0.00 in   Overcast
6:53 AM 27.0 °F 17.3 °F 23.0 °F 85% 29.87 in 10.0 mi NNW 10.4 mph - 0.00 in   Overcast
7:53 AM 27.0 °F 18.7 °F 23.0 °F 85% 29.88 in 6.0 mi North 8.1 mph - N/A   Overcast
8:35 AM 26.6 °F 19.1 °F 21.2 °F 80% 29.78 in 10.0 mi North 6.9 mph - 0.00 in   Overcast
8:53 AM 26.1 °F 19.4 °F 21.9 °F 84% 29.88 in 10.0 mi North 5.8 mph - 0.00 in   Overcast
9:53 AM 28.0 °F 22.8 °F 21.9 °F 78% 29.89 in 10.0 mi NNW 4.6 mph - N/A   Overcast
10:43 AM 28.4 °F 22.2 °F 24.8 °F 86% 29.80 in 5.0 mi NE 5.8 mph - 0.00 in   Haze
10:53 AM 28.9 °F 23.9 °F 25.0 °F 85% 29.90 in 5.0 mi ENE 4.6 mph - 0.00 in   Overcast
11:03 AM 28.4 °F 24.6 °F 24.8 °F 86% 29.80 in 3.0 mi NE 3.5 mph - 0.00 in Snow Light Snow
11:11 AM 30.2 °F 25.4 °F 24.8 °F 80% 29.80 in 2.5 mi NNE 4.6 mph - 0.00 in Snow Light Snow
11:31 AM 28.4 °F - 24.8 °F 86% 29.80 in 2.0 mi Calm Calm - 0.00 in Snow Light Snow
11:53 AM 28.9 °F 23.9 °F 25.0 °F 85% 29.89 in 3.0 mi NNW 4.6 mph - 0.00 in Snow Light Snow
12:11 PM 30.2 °F 25.4 °F 24.8 °F 80% 29.79 in 9.0 mi NNW 4.6 mph - 0.00 in   Mostly Cloudy
12:21 PM 30.2 °F 26.7 °F 24.8 °F 80% 29.78 in 10.0 mi NW 3.5 mph - 0.00 in   Mostly Cloudy
12:53 PM 32.0 °F 28.7 °F 24.1 °F 73% 29.86 in 10.0 mi NE 3.5 mph - 0.00 in   Mostly Cloudy
1:53 PM 30.9 °F - 24.1 °F 76% 29.85 in 10.0 mi Calm Calm - N/A   Overcast
2:53 PM 30.0 °F 25.2 °F 25.0 °F 82% 29.85 in 10.0 mi SE 4.6 mph - N/A   Mostly Cloudy
3:53 PM 28.9 °F 23.9 °F 24.1 °F 82% 29.87 in 10.0 mi SE 4.6 mph - N/A   Partly Cloudy
4:53 PM 28.0 °F 24.2 °F 23.0 °F 81% 29.87 in 10.0 mi East 3.5 mph - N/A   Overcast
5:53 PM 23.0 °F 17.0 °F 19.9 °F 88% 29.90 in 10.0 mi South 4.6 mph - N/A   Mostly Cloudy
6:53 PM 19.9 °F 14.9 °F 18.0 °F 92% 29.90 in 10.0 mi ESE 3.5 mph - N/A   Overcast
7:53 PM 18.0 °F 12.7 °F 16.0 °F 92% 29.91 in 10.0 mi SE 3.5 mph - N/A   Clear
8:53 PM 18.0 °F 11.1 °F 15.1 °F 88% 29.91 in 10.0 mi SE 4.6 mph - N/A   Mostly Cloudy
9:53 PM 15.1 °F - 12.0 °F 88% 29.90 in 10.0 mi Calm Calm - N/A   Partly Cloudy
10:53 PM 14.0 °F - 12.9 °F 95% 29.90 in 10.0 mi Calm Calm - N/A   Clear
11:14 PM 12.2 °F 6.1 °F 8.6 °F 85% 29.76 in 2.5 mi ESE 3.5 mph - N/A   Clear
11:22 PM 14.0 °F - 12.2 °F 93% 29.76 in 10.0 mi Calm Calm - N/A   Clear
11:53 PM 12.9 °F 6.9 °F 10.9 °F 92% 29.90 in 4.0 mi SSE 3.5 mph - N/A   Clear